Theta_e
313 313 312 311 310 309 309 309 307 306 306 305 306 306 306 306 306 307 307 307 307 307 308 308 308 309 311 312 313 314 314 316 316 316 317 319 319 315 312 313 314 315 315 314 314 314 314 314 314 313 316 318 316 315 315 318 331 343 340 332 321 317 318 318 320 318 320 322 319 317 317 318 317 315 312 311 316 318 316 316 315 314 311 311 312 312 315 317
312 312 311 312 310 308 309 308 307 307 307 307 306 306 306 306 307 307 307 307 307 307 308 308 309 310 312 313 313 314 315 318 318 315 313 316 317 314 313 314 315 315 315 315 315 314 315 317 314 313 320 320 314 317 319 315 325 341 339 330 323 323 318 317 321 318 317 319 319 318 316 316 317 316 313 312 316 314 318 319 316 318 315 312 313 313 316 319
311 311 311 311 310 307 308 307 308 308 307 307 307 306 306 306 307 307 307 307 307 308 308 308 310 311 313 313 314 315 316 320 320 315 313 315 315 314 314 315 315 315 315 316 316 315 315 317 312 314 323 320 315 321 324 317 318 329 335 330 325 327 320 314 318 320 319 318 319 318 314 316 316 315 314 314 316 314 321 324 319 322 319 316 313 311 314 317
310 309 310 311 309 307 306 306 308 308 308 308 308 308 308 308 308 308 307 308 308 308 308 309 311 312 313 314 314 315 318 321 320 315 314 314 314 314 315 315 315 315 316 316 316 315 315 314 312 317 322 320 324 325 321 318 317 320 328 327 321 321 319 316 318 320 319 317 320 320 315 316 315 314 315 316 316 315 320 324 323 326 322 318 315 310 313 314
309 309 309 310 308 307 306 306 307 307 308 308 308 308 309 309 309 309 308 308 308 309 309 310 312 313 313 314 315 317 320 322 319 314 313 314 314 314 314 314 315 316 316 316 317 316 314 313 314 323 323 319 328 327 317 316 318 319 319 320 319 317 315 317 318 318 316 316 320 320 316 316 314 315 317 316 317 319 319 318 320 323 319 317 315 310 311 311
309 309 309 309 309 308 306 306 307 307 307 307 307 307 308 309 308 309 308 308 309 309 310 311 313 314 314 315 316 318 319 318 316 313 313 314 313 313 313 314 315 316 316 317 316 315 316 317 318 326 324 319 321 320 317 314 316 321 317 316 319 318 316 318 319 318 317 318 320 320 316 316 316 317 317 316 317 317 314 312 314 316 313 312 311 310 313 311
309 309 309 308 309 309 306 305 307 307 307 307 307 307 307 307 308 308 308 308 309 310 311 313 314 314 315 316 317 321 321 318 316 314 314 313 313 313 313 313 314 316 317 316 316 317 320 323 322 323 322 319 317 316 317 316 320 326 320 317 318 316 317 319 319 320 320 319 320 319 315 315 319 316 314 315 317 314 309 307 308 309 308 309 311 311 311 309
309 307 308 308 309 308 306 305 307 307 307 307 307 307 307 307 307 308 308 308 309 311 312 313 314 314 315 317 320 324 321 318 317 315 314 313 313 313 313 314 315 316 317 315 315 316 319 321 319 318 321 318 315 316 315 316 324 325 319 318 318 316 319 319 318 320 320 318 317 316 316 318 319 314 313 317 317 312 309 307 306 307 308 310 315 312 307 307
309 307 307 308 308 307 305 304 306 306 307 307 307 306 307 307 308 308 308 309 310 311 313 314 314 314 316 317 317 319 319 318 317 316 314 313 313 313 313 315 316 317 316 315 314 314 317 319 317 315 319 317 314 316 316 317 321 320 318 319 318 317 319 318 318 320 319 318 315 315 318 318 315 313 315 319 316 311 309 310 310 311 313 314 315 310 306 306
310 309 308 308 307 308 307 306 305 305 306 306 307 307 307 307 308 309 309 310 311 312 313 314 315 315 316 315 315 316 317 319 317 315 314 313 313 312 314 315 316 317 316 315 314 315 316 316 315 313 316 318 315 315 315 316 317 318 319 318 318 320 320 318 318 319 317 317 316 315 319 318 313 314 318 319 312 310 312 313 311 313 316 313 312 308 306 306
311 311 310 307 307 309 310 309 308 306 306 306 306 307 307 307 307 309 310 311 312 313 314 314 315 316 316 317 321 320 318 319 316 314 314 313 312 312 315 316 316 317 316 316 314 314 315 314 312 312 315 315 315 316 315 314 314 316 319 318 321 324 321 317 317 317 315 315 317 316 317 317 312 315 321 318 310 310 314 314 311 314 315 311 311 308 305 305
311 311 311 309 309 309 310 310 310 309 308 306 307 307 306 307 307 309 310 312 313 313 314 315 315 316 316 318 324 322 319 319 316 314 314 313 313 314 315 316 316 317 316 316 314 313 313 313 313 315 317 314 316 317 314 314 313 315 319 319 324 330 324 318 317 316 315 315 317 316 316 319 317 316 319 314 309 311 314 315 313 314 313 311 311 309 305 304
311 311 311 311 311 311 311 311 311 311 310 308 307 306 306 306 307 309 311 313 313 314 315 315 315 316 316 319 321 317 318 319 316 314 314 314 314 315 316 316 316 316 317 316 315 313 313 314 314 316 316 317 319 315 315 317 315 317 318 318 325 329 326 319 315 314 314 315 318 316 319 328 329 321 315 310 310 312 314 315 313 313 312 311 310 310 308 304
311 311 312 311 312 312 311 311 312 312 312 311 309 307 306 306 308 310 312 313 313 314 315 315 316 316 317 320 319 316 318 319 318 316 314 315 315 316 316 316 316 316 316 316 315 313 314 314 313 315 313 317 317 312 323 329 323 321 316 323 328 321 329 328 315 315 315 314 315 316 320 328 331 324 314 310 310 312 315 314 312 312 311 310 310 310 310 305
311 311 311 312 312 311 310 311 312 312 312 312 311 309 307 307 310 311 312 314 314 314 315 316 316 317 321 321 317 316 318 319 319 317 315 316 315 316 316 316 316 316 316 316 315 313 313 314 314 317 314 314 316 318 333 334 331 331 317 328 332 318 333 337 315 315 317 314 313 315 321 323 324 321 314 309 310 312 315 313 311 311 310 309 309 308 309 305
311 311 310 311 311 310 311 312 312 312 313 312 311 311 309 310 312 313 314 315 315 316 316 317 315 315 320 320 316 317 318 319 320 317 316 316 315 316 315 315 314 314 315 313 314 313 313 317 315 315 315 316 324 332 338 330 332 337 322 325 334 322 329 331 317 317 317 315 313 315 322 325 324 319 311 309 310 311 314 313 311 311 310 308 308 307 307 306
312 311 310 310 311 311 312 312 312 312 312 312 312 312 312 313 314 314 315 315 316 318 317 317 315 314 316 315 317 319 319 318 319 316 316 316 316 316 314 314 313 312 314 312 313 314 313 318 316 316 320 320 325 333 333 324 327 334 323 322 332 327 324 327 326 319 314 315 315 314 317 322 324 318 311 309 310 311 313 313 311 309 308 307 306 306 306 306
313 312 311 311 311 311 311 312 312 312 313 313 312 313 314 315 315 315 316 315 316 315 315 316 313 313 314 314 316 319 317 317 318 317 316 317 316 316 314 313 311 312 316 315 314 315 316 321 323 324 324 320 322 326 325 323 327 333 328 325 327 324 323 327 329 320 313 315 316 315 316 318 319 316 314 312 310 312 313 311 311 309 308 308 307 306 305 306
314 313 312 311 311 311 311 311 311 312 313 313 314 315 314 315 316 316 316 316 317 314 314 317 313 312 315 315 316 316 316 317 318 316 316 318 315 314 314 312 314 317 319 319 315 317 321 323 325 326 324 320 321 322 322 323 329 334 333 332 332 328 326 327 329 326 317 315 317 317 316 317 316 315 316 314 310 311 311 310 310 310 309 308 307 306 305 305
314 313 312 312 311 310 311 310 311 313 313 314 316 314 312 317 316 315 318 319 320 316 317 320 316 315 317 317 318 316 317 317 317 317 316 316 314 314 315 313 319 321 320 325 321 316 320 323 324 326 324 322 320 320 321 324 326 330 331 332 332 329 330 330 328 326 318 315 321 320 316 317 316 316 316 314 311 310 311 311 310 310 310 309 307 306 305 304
314 313 313 313 312 310 310 311 313 314 314 314 316 314 315 319 314 314 321 321 318 314 318 320 315 315 316 316 317 315 318 318 315 317 316 315 314 315 317 316 320 322 321 327 322 315 318 322 324 325 322 319 319 319 320 323 323 324 328 328 328 328 329 328 324 323 318 316 324 323 318 317 315 315 314 313 313 313 311 311 311 310 309 309 308 307 305 304
313 313 313 313 312 311 310 312 314 314 314 314 315 315 316 317 313 314 318 321 319 315 316 317 314 316 315 314 316 315 319 322 318 317 316 314 315 316 319 321 323 324 322 322 321 320 321 323 322 321 321 319 319 319 317 320 320 321 325 324 326 328 325 326 326 321 316 317 326 328 321 319 317 315 315 315 314 313 312 311 311 311 310 309 308 307 306 305
314 313 314 314 312 311 311 313 315 315 314 314 314 315 315 316 315 315 314 319 324 319 316 317 317 320 318 315 316 316 319 324 322 320 316 314 316 318 319 320 322 323 322 321 323 325 326 327 322 318 321 321 320 320 317 318 319 322 325 323 326 327 323 329 329 321 318 318 322 326 321 318 317 317 318 317 315 314 314 314 311 310 310 309 308 308 306 305
315 314 313 314 312 311 312 314 316 315 314 314 314 315 316 317 316 316 316 319 322 321 318 316 315 318 320 316 315 318 320 321 322 320 316 314 317 318 318 320 322 323 321 321 323 324 325 326 320 318 321 320 322 323 321 321 323 324 324 323 325 326 325 328 327 323 326 324 320 321 323 324 324 321 319 319 319 317 317 317 315 311 310 310 309 308 306 305
315 314 313 313 312 311 312 315 317 315 314 314 314 314 316 317 316 314 317 320 321 322 317 314 315 318 317 315 315 319 319 320 323 319 314 314 317 318 318 320 322 323 321 320 320 322 323 320 319 321 320 319 322 324 325 326 326 326 326 324 323 326 326 326 325 324 330 333 324 319 326 336 334 327 322 322 323 322 318 317 318 314 310 311 310 309 306 304
315 314 313 313 312 311 312 315 315 314 314 313 313 314 315 317 316 314 319 324 321 320 317 314 318 319 315 315 317 318 319 320 320 316 314 314 315 317 319 319 320 322 321 320 320 322 322 319 322 328 324 322 323 323 325 325 324 327 329 325 322 323 324 325 326 325 331 335 323 319 329 335 331 327 327 328 329 329 323 319 318 315 312 310 309 308 306 304
315 315 314 314 312 311 313 315 314 314 315 314 312 314 315 316 316 313 317 323 318 316 319 316 315 316 316 316 315 315 317 319 317 314 314 315 314 316 320 321 319 320 320 321 323 322 322 320 322 327 327 325 323 324 325 322 325 331 327 324 324 322 323 326 327 327 330 329 322 323 329 328 326 325 324 327 329 330 327 323 320 315 311 310 308 307 305 303
315 315 315 314 312 312 314 315 315 314 314 314 313 313 316 316 315 314 316 319 316 316 321 318 313 314 316 314 314 318 317 318 320 317 313 313 315 316 320 323 321 321 321 322 323 321 321 324 324 323 326 325 324 329 327 321 327 330 321 321 324 323 326 328 328 327 325 325 325 325 324 326 330 327 322 322 323 325 326 323 321 318 312 309 308 307 304 302
315 316 315 315 312 311 313 315 315 315 313 315 314 314 316 315 315 318 318 314 316 320 319 317 315 315 317 314 316 321 319 319 322 317 313 313 315 316 320 322 321 322 320 319 323 322 320 321 321 322 324 325 327 329 325 322 325 321 316 321 323 323 326 328 330 329 328 328 328 326 324 327 331 328 325 323 323 326 323 322 324 320 313 309 308 306 304 302
316 316 316 315 313 311 312 314 315 315 313 314 315 314 316 317 316 317 316 313 318 324 317 316 318 318 319 317 318 321 320 320 318 315 316 316 315 317 317 318 322 325 322 319 323 324 319 315 316 321 323 324 326 322 318 321 321 318 321 327 328 329 330 330 329 328 330 330 328 328 327 327 330 329 327 324 326 327 323 325 330 323 313 308 307 305 303 302
316 317 316 315 313 311 313 315 315 316 315 314 315 314 316 323 322 317 316 313 315 321 317 317 319 318 318 319 320 321 320 319 317 316 319 318 318 320 318 318 322 326 325 323 324 323 320 317 318 320 320 322 326 321 316 317 316 321 332 333 331 332 330 330 329 328 331 331 327 325 323 324 328 328 326 325 324 324 323 326 331 328 319 309 306 305 302 301
317 317 316 315 313 311 313 315 315 315 316 315 316 315 317 324 324 320 317 311 312 321 321 321 320 319 319 320 321 320 320 320 317 318 320 319 319 319 319 321 323 324 326 325 324 323 323 323 321 318 316 320 326 325 320 316 316 324 333 330 330 332 329 329 329 326 328 326 320 318 320 323 325 325 325 324 322 322 322 321 323 326 322 312 306 304 302 300
317 317 317 315 314 312 312 315 315 315 316 316 316 318 321 323 322 321 318 313 314 321 322 322 321 320 319 321 322 319 319 321 318 318 320 320 320 319 319 322 322 324 329 325 322 324 326 325 321 318 319 321 323 325 324 322 320 323 327 328 331 331 330 331 328 323 324 324 316 315 320 324 325 325 324 322 321 322 319 318 320 320 319 314 307 303 302 300
318 317 317 316 315 313 312 315 316 316 316 316 316 320 323 323 321 319 318 315 318 321 322 322 321 319 319 322 324 320 320 322 319 319 321 320 321 321 321 322 320 324 330 325 322 326 328 328 325 321 322 322 320 322 326 325 321 320 323 326 329 330 332 334 332 329 330 326 316 314 320 327 330 328 322 319 320 320 316 314 314 313 312 311 307 303 302 300
318 318 317 316 314 313 313 315 316 316 316 316 318 321 321 320 319 318 317 318 324 325 322 321 321 321 322 324 324 320 321 323 318 319 322 321 322 322 321 321 318 323 328 324 324 324 325 330 328 321 319 320 319 322 325 325 322 320 322 326 327 329 331 330 327 324 325 325 320 317 321 327 328 323 317 316 318 318 314 310 311 312 309 307 307 304 301 300
318 317 317 315 314 313 313 315 316 316 316 317 320 321 320 319 317 317 317 320 325 325 322 322 324 325 323 324 323 320 320 323 320 321 322 320 322 322 321 321 318 319 322 322 326 326 327 330 323 316 318 318 318 321 322 324 325 321 321 325 324 322 325 328 323 316 318 325 324 321 322 324 324 321 318 318 319 318 315 313 313 312 307 305 306 303 301 300
317 316 315 315 314 314 313 315 316 316 316 318 321 321 320 319 317 318 320 320 322 322 323 324 325 326 325 324 324 322 321 322 320 322 323 321 323 323 321 322 320 317 319 322 326 327 328 330 319 315 321 316 312 319 321 318 321 323 324 324 320 319 324 329 327 323 323 326 325 322 323 324 323 324 322 318 318 318 317 318 316 310 305 305 305 302 301 300
316 316 316 315 315 314 313 315 316 316 317 319 320 321 320 319 319 320 322 321 321 322 322 322 320 323 325 324 325 322 321 323 321 321 324 321 323 324 321 322 321 317 318 320 324 324 325 328 321 315 319 315 311 318 322 316 315 321 326 323 322 327 328 326 328 328 327 328 327 324 321 320 319 323 323 320 323 324 320 318 317 313 307 304 303 302 301 300
316 317 318 316 315 315 313 314 316 316 319 321 319 320 321 320 320 323 324 320 320 320 320 319 318 321 324 323 324 322 320 322 321 321 323 322 323 323 319 321 322 318 317 318 322 324 323 326 325 314 313 316 315 318 323 320 315 316 319 318 320 326 326 325 326 327 328 329 329 326 323 322 321 321 323 321 323 326 322 319 318 314 308 304 303 302 301 300
316 317 318 317 315 315 314 314 316 317 320 321 318 318 319 319 319 323 325 320 318 319 318 318 318 321 323 322 322 322 321 321 320 320 323 322 322 322 319 320 323 319 317 317 320 323 321 323 326 316 311 316 320 320 322 322 319 317 319 320 319 319 321 324 324 323 327 329 329 329 326 325 325 322 321 320 320 321 322 321 318 313 307 304 302 302 301 300
314 315 316 316 316 315 314 315 317 319 320 319 318 317 317 318 318 321 323 321 320 322 319 318 318 320 322 322 321 322 321 321 320 320 322 321 321 323 320 320 323 320 318 318 320 322 322 323 327 322 316 318 323 320 317 319 320 319 320 321 320 319 321 324 324 322 322 324 327 329 324 325 330 323 317 318 319 317 316 316 316 313 308 305 303 302 302 300
314 313 313 316 316 315 315 317 318 319 318 317 316 316 316 317 318 320 321 321 321 323 321 320 320 320 321 321 321 322 322 322 321 320 322 321 320 323 322 319 321 319 318 320 320 320 323 325 326 324 319 319 320 316 312 316 318 318 320 321 320 320 320 323 325 323 321 321 322 323 323 325 326 321 317 319 321 319 318 314 314 314 310 306 304 303 301 301
313 312 312 315 316 315 316 318 319 318 317 314 314 316 316 317 318 319 320 321 321 322 322 323 323 320 320 321 321 322 322 322 321 320 322 321 319 321 322 319 319 319 319 322 320 320 322 324 325 325 321 319 319 315 311 313 316 318 320 321 321 320 319 322 324 322 323 323 320 322 324 322 321 320 317 318 319 319 319 315 313 314 312 307 305 303 302 301
313 311 311 314 316 316 318 319 318 316 314 313 313 315 315 316 317 318 319 319 320 322 322 322 323 321 320 323 323 321 321 322 322 320 321 322 320 320 321 319 318 319 320 321 321 320 322 325 326 327 325 323 322 319 315 314 315 319 320 318 318 319 319 321 321 319 321 323 321 324 325 321 324 323 316 315 319 319 318 316 312 312 313 310 306 304 303 301
313 313 312 313 314 316 318 318 317 315 313 312 313 313 314 315 315 317 318 319 319 321 322 321 323 323 322 323 322 320 320 321 322 321 320 321 320 318 319 319 318 318 318 320 320 319 322 326 324 325 328 327 325 324 322 317 315 318 320 318 316 318 319 320 320 319 321 321 321 323 323 321 325 323 316 315 320 321 322 320 315 311 311 310 308 305 304 302
313 313 312 312 313 314 314 313 313 313 312 312 312 312 312 313 314 315 317 319 319 320 321 323 324 323 323 323 322 321 321 320 322 324 321 322 322 318 316 316 317 318 319 322 321 319 323 326 323 324 326 325 326 326 323 319 317 318 319 318 317 317 318 319 320 321 322 321 321 321 321 322 323 321 318 320 323 324 325 323 319 314 310 308 308 306 303 301
312 313 313 313 313 312 312 311 311 311 311 311 312 312 312 312 313 314 316 317 318 319 320 321 322 323 324 323 322 322 322 320 322 324 322 321 321 316 312 312 315 317 319 322 321 321 325 325 323 324 324 323 328 327 321 319 319 318 318 318 317 317 317 319 321 322 322 323 323 321 320 322 322 320 321 323 324 325 326 326 323 317 310 307 306 306 304 302
311 313 313 313 314 313 311 311 311 310 310 311 311 310 312 312 313 314 315 316 317 318 320 321 321 322 323 323 323 323 323 322 322 322 321 321 320 315 312 312 314 314 317 320 319 321 325 324 323 324 322 323 328 326 320 320 320 319 318 318 317 317 317 318 319 320 321 323 323 323 323 323 320 319 321 324 323 322 325 325 319 313 309 307 306 306 306 304
309 311 310 310 313 314 312 311 310 310 310 310 310 310 311 313 312 313 314 315 316 317 319 320 320 321 322 322 323 323 323 323 322 321 321 320 319 318 316 317 316 314 316 320 319 320 323 323 323 323 321 322 325 323 320 320 320 320 319 318 317 317 317 317 318 318 319 320 320 322 324 322 318 319 322 323 320 318 320 320 315 313 312 310 308 307 306 304
308 309 309 309 310 312 312 311 311 310 309 309 310 310 310 312 312 312 313 315 316 316 318 320 320 320 321 321 323 323 322 322 323 322 321 320 319 318 318 320 320 315 314 318 319 318 321 323 322 321 322 322 321 321 320 319 320 320 319 318 317 316 316 317 317 317 318 319 318 320 321 320 319 321 321 319 316 314 316 318 317 317 314 310 308 307 305 304
305 304 306 308 310 310 312 312 312 312 311 309 310 310 310 310 311 312 313 314 315 315 316 318 319 320 320 321 321 322 322 321 322 323 321 320 319 319 319 319 319 315 313 316 319 317 319 321 319 319 324 323 321 320 319 318 319 320 320 319 317 316 316 316 316 317 317 318 318 319 320 319 319 320 318 317 318 317 317 317 317 315 312 309 308 307 305 304
302 302 303 306 308 308 310 312 313 313 313 310 309 310 310 310 310 311 313 314 314 315 316 317 318 319 320 321 320 321 322 321 321 323 323 320 319 320 320 317 315 314 314 315 317 317 318 319 318 320 323 323 321 320 318 317 319 321 321 320 317 315 315 315 316 316 316 318 319 319 319 317 318 320 318 318 319 318 316 315 314 314 312 308 306 305 304 304
Wind_Speed
5 4 4 5 7 7 6 6 6 6 6 6 6 6 6 6 6 5 5 5 4 5 5 6 6 6 7 7 8 8 9 8 4 3 2 3 2 2 1 2 2 3 4 4 6 3 3 5 8 12 6 3 4 2 2 2 3 5 4 4 3 4 3 5 7 7 4 4 5 3 2 7 3 2 1 3 7 4 3 5 3 5 4 2 2 4 6 12
6 5 4 5 7 7 7 6 5 6 5 5 6 6 6 6 5 5 5 4 4 5 5 6 6 6 7 8 8 9 10 7 3 3 3 3 4 3 2 3 3 4 5 6 8 6 4 5 8 9 6 3 3 3 2 2 3 4 3 4 3 5 4 5 7 7 3 3 5 2 2 5 5 4 3 1 2 1 2 3 4 4 3 2 4 6 8 13
6 6 5 5 7 7 8 7 5 5 5 5 5 5 5 5 4 4 4 4 4 5 6 6 6 6 7 8 8 9 9 5 1 3 1 4 6 5 4 4 4 5 6 7 7 7 3 3 4 5 4 3 2 3 4 4 2 2 4 4 4 6 3 4 6 7 5 4 6 2 2 3 4 3 1 3 3 1 3 3 1 2 4 3 0 5 10 12
6 6 5 5 6 7 7 7 6 5 5 5 5 4 4 4 4 3 4 4 4 5 5 5 6 6 7 8 8 8 7 4 1 2 4 6 7 6 5 4 5 6 6 7 6 6 4 2 3 4 4 3 4 4 4 3 2 2 4 3 5 4 2 4 6 6 4 5 7 3 3 2 3 2 1 5 5 3 6 7 7 8 9 8 4 4 9 11
6 5 5 5 6 6 6 7 6 6 5 4 4 4 4 3 3 3 3 4 4 5 5 5 6 6 7 7 8 8 5 4 1 4 7 7 7 5 4 4 5 5 6 7 5 4 4 4 5 5 4 2 5 5 2 3 2 3 1 3 5 4 2 4 5 3 4 5 5 4 3 3 1 1 3 8 6 5 6 7 8 8 10 10 7 7 8 10
6 6 5 5 5 5 6 7 6 6 6 5 4 4 4 3 3 3 3 4 4 4 4 4 5 6 6 7 7 5 3 1 3 6 7 7 7 4 3 3 4 5 6 5 6 5 4 5 6 4 3 3 3 3 1 5 3 3 1 1 3 3 2 3 4 4 5 6 5 5 3 2 3 1 3 7 7 5 4 5 5 6 11 12 10 9 7 8
7 6 5 5 5 5 6 8 7 6 6 5 4 4 4 3 3 3 3 3 4 4 3 4 5 5 5 6 5 4 3 2 4 8 9 7 6 3 2 2 3 4 4 4 6 4 4 7 6 3 4 3 0 1 1 5 4 5 1 1 1 3 3 3 3 4 5 6 6 4 3 3 4 3 0 3 6 3 3 2 7 10 13 13 9 7 7 8
7 7 6 5 5 4 7 8 7 7 6 5 5 4 4 3 3 3 3 3 3 3 3 4 5 5 5 4 2 4 2 3 5 10 10 8 6 4 1 2 3 3 3 6 6 3 4 6 3 3 3 2 2 2 3 4 5 5 2 2 0 1 4 2 2 2 4 4 3 4 4 5 5 3 1 5 5 1 2 6 9 11 11 9 7 6 7 8
7 6 5 5 4 4 6 7 7 7 6 5 5 5 5 5 4 4 4 3 3 3 3 3 5 4 4 2 5 2 4 3 6 11 10 8 7 4 2 2 2 2 4 7 6 4 3 2 2 3 3 2 2 2 3 2 1 1 4 2 1 1 5 3 1 3 3 2 2 4 3 5 2 2 2 5 6 4 4 6 6 8 7 6 5 6 7 8
7 6 5 5 4 3 4 5 5 6 6 5 5 5 5 5 5 5 4 4 3 3 2 3 4 3 2 2 6 1 4 2 7 11 9 8 6 5 2 1 2 2 4 5 6 6 4 3 3 3 4 2 2 2 2 1 1 2 4 1 0 1 4 0 3 5 2 2 3 5 5 3 3 1 3 4 5 5 6 6 4 6 6 5 5 5 8 8
7 6 6 5 3 2 2 2 2 3 4 5 5 5 5 4 5 5 4 4 4 2 2 2 3 3 2 3 5 3 3 2 8 10 9 8 6 4 2 1 1 2 3 4 5 6 5 4 4 4 2 1 1 3 2 1 2 2 4 1 4 5 5 2 3 5 1 2 5 6 4 3 2 1 6 5 6 6 7 6 4 5 5 5 5 4 6 7
7 7 6 5 4 2 1 2 2 2 3 4 5 5 4 4 5 5 5 5 4 3 2 1 1 1 1 3 3 6 3 2 7 8 8 7 5 4 1 1 0 3 2 3 4 4 5 2 5 5 0 2 2 2 0 1 2 2 4 1 6 8 6 3 3 4 3 2 5 6 2 5 3 5 6 3 7 5 7 7 4 5 4 4 5 4 4 6
9 8 7 7 5 3 2 2 2 2 2 3 4 4 4 4 5 5 5 5 4 3 2 1 1 1 2 0 3 6 5 4 6 8 8 6 5 4 2 2 2 3 2 3 3 4 5 2 4 5 2 4 2 1 2 3 3 0 3 2 3 7 6 4 1 1 5 3 3 4 2 6 7 8 5 3 8 7 6 7 5 5 4 4 4 4 4 5
10 9 8 8 6 6 5 3 3 3 2 2 2 3 3 4 6 6 6 5 4 3 1 1 0 1 2 2 4 4 7 7 7 8 8 7 6 4 3 2 1 1 2 3 3 4 4 3 6 5 2 3 1 1 4 5 3 1 1 2 2 1 5 6 1 4 5 2 2 4 2 7 9 8 4 6 8 9 8 8 6 6 5 5 4 4 4 5
11 10 9 8 8 8 7 5 4 3 2 3 3 2 3 4 6 5 5 5 4 2 1 1 1 2 2 3 4 3 6 7 7 9 8 8 7 5 3 3 1 1 1 1 3 3 3 4 6 4 1 2 3 4 4 4 3 3 0 3 3 2 5 8 2 6 5 1 1 5 2 7 9 7 4 7 7 8 9 8 7 7 6 6 5 5 4 4
12 11 10 9 9 7 7 5 4 2 1 3 3 3 2 4 6 5 6 5 5 3 2 2 2 3 1 3 2 2 6 7 7 11 10 9 8 4 4 4 2 2 3 2 3 4 5 5 4 2 1 2 4 5 3 3 4 3 1 3 2 2 3 6 3 4 3 2 0 2 2 4 5 5 1 6 7 7 7 7 8 8 7 7 5 5 4 4
12 11 11 10 9 8 7 6 3 2 0 2 2 1 2 4 5 5 6 7 7 5 4 3 3 3 0 2 1 3 5 7 9 12 12 9 7 6 6 4 3 4 5 4 4 3 5 5 1 1 2 3 3 5 3 2 4 4 1 2 4 3 2 3 4 4 1 3 3 3 3 6 6 3 0 5 6 7 8 9 9 8 7 6 5 5 5 5
12 10 11 10 9 9 9 7 5 2 0 1 0 3 6 6 5 6 8 10 9 7 4 1 3 2 3 3 3 3 4 7 10 12 12 9 8 7 6 4 4 6 5 4 3 2 3 4 2 1 3 2 1 5 3 5 4 3 3 2 3 3 3 4 5 2 3 2 3 4 4 10 12 7 4 7 6 8 11 10 7 7 7 6 6 6 6 6
13 12 12 11 9 10 11 9 6 3 1 0 4 8 8 6 5 5 7 9 6 4 1 4 4 3 4 4 2 3 6 9 10 11 11 9 9 7 6 5 5 6 4 1 1 1 2 3 4 2 1 3 5 7 8 8 6 7 6 4 4 4 4 5 5 5 3 2 4 7 7 10 12 11 8 7 7 9 10 8 6 6 7 7 7 6 7 7
14 13 12 12 10 9 11 9 5 4 2 2 7 9 6 4 3 1 2 3 4 3 2 5 6 3 0 2 3 8 8 7 5 7 10 10 11 9 4 4 6 5 3 4 2 0 3 3 2 4 8 9 9 9 7 5 6 5 5 4 4 4 4 5 4 6 1 3 6 7 8 10 11 12 10 6 6 8 10 9 9 8 8 8 9 9 8 7
15 14 13 12 10 9 11 8 6 4 3 5 8 5 3 4 3 2 3 4 9 8 4 3 3 2 1 1 7 10 6 3 2 4 11 11 12 9 1 2 5 1 2 4 3 2 3 4 7 10 10 8 7 8 5 4 4 3 4 3 3 3 5 6 3 5 2 2 6 5 6 11 11 12 10 3 6 10 13 13 13 11 10 9 10 10 8 6
16 15 13 12 11 10 10 8 7 6 5 6 8 3 2 3 3 1 2 1 9 13 11 4 1 4 3 2 8 7 3 2 0 3 10 10 8 6 1 4 5 4 1 3 3 1 1 5 11 10 4 5 3 5 5 4 3 2 3 3 3 3 4 6 5 4 2 2 4 5 6 9 10 10 10 7 9 11 11 13 14 13 12 11 10 10 8 7
17 15 14 14 12 11 10 9 8 9 8 8 8 5 2 2 4 3 2 1 5 7 8 7 6 6 3 2 8 8 1 4 4 5 11 10 4 4 4 5 5 4 4 5 5 4 4 6 10 7 7 6 3 3 5 3 1 3 3 3 3 3 2 4 5 3 1 1 3 5 7 8 8 7 10 13 11 8 8 10 11 11 12 12 12 11 11 12
19 16 15 15 13 11 11 10 10 12 12 11 13 11 5 5 4 3 1 0 4 4 4 9 8 6 7 4 9 11 2 4 5 5 13 12 5 3 5 5 5 4 4 9 9 7 7 5 2 6 8 8 5 4 6 5 3 5 6 6 4 4 6 6 4 4 3 3 3 4 7 7 6 8 11 10 4 4 7 8 10 10 9 8 9 10 11 12
20 17 16 16 14 12 13 9 10 14 13 10 16 17 8 5 4 4 2 1 3 5 3 5 5 6 12 9 11 10 2 3 4 7 16 15 9 4 3 3 4 5 7 7 6 6 8 5 4 6 5 6 6 5 6 7 4 5 5 9 9 7 8 5 2 4 4 5 4 3 4 7 4 5 10 7 4 6 7 7 11 10 6 7 9 9 9 9
21 18 18 19 15 14 13 7 10 14 11 11 15 16 11 6 3 3 3 3 4 4 1 4 4 8 13 9 9 7 2 5 4 8 16 16 9 4 2 2 2 4 6 5 3 3 5 3 5 7 6 7 7 5 6 7 6 4 5 9 10 7 6 4 3 2 1 5 3 2 2 7 6 4 9 7 6 10 8 7 11 8 6 8 9 8 9 9
23 20 20 20 16 18 14 4 11 15 8 10 14 14 13 9 4 1 3 3 5 3 5 2 2 7 10 10 12 9 2 5 2 6 11 11 8 2 2 5 2 2 4 4 2 3 4 3 4 6 6 6 6 4 6 8 7 4 4 5 8 7 6 6 6 4 3 3 3 2 3 5 9 6 6 6 7 10 10 11 12 7 7 8 7 8 9 10
24 22 22 22 19 23 16 5 13 18 8 5 11 17 16 12 7 2 5 0 5 3 5 2 1 4 4 8 13 7 2 3 5 4 3 7 7 2 2 7 5 6 5 5 5 3 4 6 6 7 5 4 6 5 7 10 6 5 2 5 6 5 5 4 5 3 1 3 4 2 3 3 10 6 1 1 5 9 12 15 13 6 8 8 7 8 9 9
26 24 24 23 19 23 22 10 11 18 14 7 12 21 19 14 8 4 4 3 3 2 2 2 3 2 3 6 7 3 2 2 2 3 2 4 4 3 3 7 5 6 4 4 6 3 1 5 7 8 6 6 5 2 7 10 5 3 5 7 6 5 5 5 4 3 2 3 5 5 5 3 8 5 3 2 3 9 12 12 8 5 8 9 8 9 8 8
28 26 26 24 21 25 27 20 14 15 15 10 14 23 20 9 5 4 2 4 1 1 1 2 2 2 8 10 3 1 2 1 0 2 3 1 1 4 1 3 5 5 1 2 4 3 1 1 2 4 4 5 4 3 2 5 5 6 7 7 7 6 5 4 2 4 2 5 6 9 10 6 6 4 4 3 4 7 8 6 6 4 6 8 8 8 9 9
31 28 27 28 27 29 24 20 20 15 14 14 17 23 15 4 3 5 6 3 1 1 2 1 2 5 12 14 6 3 3 1 1 5 3 1 2 3 1 1 4 3 1 4 4 3 3 1 1 2 2 4 6 5 3 2 5 6 5 5 4 3 5 4 4 4 1 6 4 7 9 8 8 6 3 5 5 5 6 5 6 6 6 8 8 7 8 8
34 32 32 31 29 31 22 15 22 19 13 19 21 16 7 2 1 6 5 0 1 4 5 3 3 6 11 12 9 8 6 2 4 7 6 5 5 6 6 6 5 3 2 6 3 2 2 4 3 2 1 4 6 4 4 3 2 4 5 6 4 2 3 2 3 0 3 6 3 1 2 5 10 7 5 11 12 8 8 7 6 6 7 8 8 8 7 7
35 34 35 35 32 35 29 17 20 20 16 23 18 5 3 5 6 10 9 4 2 3 4 4 3 7 11 9 6 6 4 2 5 5 4 5 6 7 6 5 5 3 2 5 4 2 3 5 2 1 2 3 8 7 3 1 4 6 6 6 5 2 1 3 3 2 4 5 4 1 1 3 6 4 8 15 14 8 6 7 7 6 7 8 9 9 8 8
37 36 38 39 36 37 35 23 20 22 22 21 11 4 6 8 8 13 15 9 1 2 3 4 5 6 8 6 4 6 4 3 6 5 2 5 5 6 5 6 6 3 3 3 3 5 4 5 4 7 4 5 10 9 6 6 6 6 4 5 6 6 4 4 4 4 4 4 4 2 2 4 2 3 7 10 8 5 4 6 6 6 7 6 7 8 8 9
38 41 41 39 37 37 37 30 24 27 24 13 6 7 11 10 10 14 14 6 2 2 3 3 7 6 5 2 3 5 5 3 5 5 4 6 6 7 7 8 10 6 5 4 2 3 4 7 6 4 1 8 11 5 5 7 3 3 2 3 4 5 5 3 3 5 3 2 3 2 4 5 4 7 8 6 6 5 4 3 3 4 4 5 7 8 9 9
37 39 36 33 35 39 40 34 30 32 23 9 7 10 11 12 11 9 8 6 5 5 6 3 4 4 6 3 2 5 2 2 5 4 3 4 4 6 7 7 10 11 8 7 3 3 3 5 5 2 2 5 7 4 4 4 3 2 3 4 4 4 6 2 2 1 3 3 4 3 6 5 3 9 10 7 10 7 3 4 4 4 3 6 8 9 10 10
28 27 22 26 35 41 43 39 36 33 17 7 12 12 10 14 10 4 6 7 7 10 9 4 3 5 7 5 4 6 3 1 5 5 4 3 3 6 8 4 7 15 14 7 2 3 4 3 4 1 2 3 1 3 3 3 3 5 4 6 3 2 3 2 2 1 1 5 5 3 7 6 2 6 5 2 8 10 7 6 5 4 5 7 8 9 10 11
16 11 11 24 37 40 42 43 39 28 9 4 11 12 10 15 10 5 5 6 9 11 9 7 7 6 8 7 6 8 7 4 6 6 4 4 5 7 11 5 6 15 15 6 1 3 3 2 4 1 2 3 3 4 2 4 2 5 4 5 4 2 2 2 2 3 2 5 5 2 5 5 7 6 2 2 8 11 10 7 7 7 8 8 8 9 9 9
11 5 6 20 34 36 42 45 33 15 5 6 11 10 11 13 8 3 4 7 9 11 10 11 9 5 6 8 7 8 10 8 9 7 5 6 5 6 12 9 6 12 13 9 5 3 3 3 4 2 0 1 2 2 5 2 2 3 2 3 2 2 3 3 3 2 2 3 3 3 3 4 7 6 7 10 12 11 10 8 9 11 11 10 9 9 9 10
7 3 3 10 25 36 44 39 19 5 5 9 10 9 11 11 6 3 4 5 5 6 9 13 11 7 6 9 6 6 9 8 9 8 5 6 6 5 9 10 6 8 11 12 8 2 3 3 3 2 2 1 2 4 8 10 6 4 4 5 3 1 2 1 1 2 3 3 3 4 6 6 5 4 10 12 11 11 11 10 11 11 10 10 9 9 10 10
3 3 3 6 21 36 36 22 8 5 8 9 10 11 11 7 5 5 5 1 0 2 4 7 10 8 7 8 6 5 7 6 7 7 5 7 8 6 7 11 10 9 8 8 8 5 4 4 4 2 2 4 5 4 5 8 8 7 8 9 9 6 4 3 4 2 3 3 4 3 7 8 4 4 7 9 8 8 8 8 9 8 8 10 9 10 10 10
3 4 2 9 26 34 22 8 6 8 8 9 10 10 5 3 4 5 4 2 2 2 1 1 7 8 6 8 7 6 7 6 7 7 6 9 11 8 8 11 13 14 12 8 9 7 4 3 3 3 4 5 6 4 2 4 3 3 4 5 7 7 8 7 7 4 3 2 2 3 5 9 4 3 5 6 6 4 3 5 7 6 7 9 9 9 9 9
3 4 2 11 30 30 12 6 10 8 6 6 8 7 3 3 6 5 5 7 6 3 2 2 3 6 6 5 6 8 8 7 9 11 8 9 11 8 7 11 13 14 11 6 5 4 3 3 4 2 2 2 4 4 3 0 3 2 2 3 6 9 10 7 5 4 4 5 4 2 6 7 3 2 3 5 5 5 5 5 6 6 4 6 8 8 8 8
2 3 1 9 28 26 8 6 10 8 6 6 9 11 7 5 6 7 9 12 9 4 6 6 4 5 5 4 6 9 12 8 9 13 11 7 7 4 7 13 13 12 9 6 6 7 5 4 5 2 1 2 2 2 3 2 3 3 4 6 8 10 8 3 1 3 3 7 9 6 9 7 3 4 3 4 5 5 7 5 4 6 5 6 7 7 7 7
2 3 1 6 18 16 5 3 7 7 7 8 9 12 12 7 5 9 10 11 9 6 7 8 6 5 4 4 5 8 12 12 10 10 9 6 3 2 5 12 14 12 9 6 8 10 7 5 7 7 8 8 7 7 6 4 4 2 4 8 10 12 13 7 3 4 6 6 11 10 12 5 3 5 5 5 4 5 7 5 4 6 6 6 7 7 7 7
2 3 2 3 7 7 4 2 3 3 5 6 5 7 12 11 8 7 8 8 9 9 6 3 3 6 5 6 8 8 12 15 9 4 7 9 4 1 3 9 12 11 6 6 10 9 3 4 10 13 15 14 9 5 6 10 8 7 10 13 14 15 16 10 6 8 5 4 7 15 13 8 7 6 6 6 4 6 7 5 5 7 6 6 7 7 7 7
3 3 4 4 3 5 6 5 4 5 4 7 5 4 10 14 10 6 6 8 9 10 9 5 4 7 7 10 13 11 10 12 8 5 8 9 4 2 1 3 7 6 2 6 10 7 4 5 12 16 18 13 5 4 10 15 14 15 14 14 16 16 15 14 14 11 7 4 11 11 9 13 18 12 8 7 6 6 7 7 8 7 6 6 5 6 7 7
3 2 3 3 2 5 7 7 9 10 9 8 5 4 8 12 12 8 7 9 8 7 7 7 8 12 13 14 13 9 8 9 9 11 11 7 3 1 1 1 4 3 3 5 7 4 4 7 11 13 17 12 3 4 9 13 13 14 15 17 19 18 19 21 21 14 11 11 16 7 10 18 21 10 8 9 9 9 9 8 6 4 4 5 6 7 9 10
2 2 1 1 1 4 7 7 9 11 12 9 5 5 7 10 14 12 7 6 7 8 9 10 15 18 18 16 12 9 10 9 10 13 11 6 5 4 3 2 4 3 4 5 6 3 4 7 8 9 14 13 6 5 7 9 10 11 14 17 19 20 23 23 22 18 15 18 18 7 10 21 15 6 9 10 10 8 4 3 4 5 6 7 9 10 11 11
2 1 1 0 1 3 3 4 7 8 9 7 5 5 5 8 14 13 8 7 9 10 12 15 19 18 16 16 14 12 14 15 16 15 11 9 7 7 7 5 4 4 4 4 5 3 4 6 6 7 8 12 10 8 7 8 9 9 11 15 18 20 21 20 18 16 14 19 19 11 16 21 8 6 9 7 4 4 3 5 7 7 8 8 9 11 11 11
3 1 1 1 1 3 3 3 5 6 6 6 5 5 5 8 12 10 8 9 10 10 11 18 22 16 12 15 17 18 20 20 17 12 9 12 10 6 6 5 6 8 7 6 4 4 5 4 3 6 7 11 10 11 9 6 5 6 13 20 19 16 15 15 15 15 16 20 18 12 17 19 7 5 6 4 5 7 8 10 9 8 8 9 11 12 11 10
4 1 2 1 1 3 3 3 5 6 5 6 8 8 7 9 10 7 5 6 10 12 10 14 18 13 9 14 19 20 19 15 10 5 5 8 6 4 4 4 6 9 9 7 4 4 6 5 3 6 8 8 8 12 10 5 3 7 16 20 18 14 13 14 14 16 19 18 14 12 19 18 6 5 6 5 7 10 10 10 9 8 8 10 11 11 10 10
Wind_Direction
195 194 196 200 192 187 189 201 202 197 197 197 196 195 196 198 203 213 226 238 252 269 279 285 296 305 311 323 327 330 336 334 322 307 284 241 205 150 95 77 59 21 15 4 5 10 18 15 0 5 30 71 12 339 12 23 60 55 80 90 116 171 186 175 181 194 175 191 212 242 163 138 175 236 166 24 34 59 37 22 357 357 24 60 89 98 115 144
192 194 193 198 199 192 189 199 203 195 192 196 198 198 197 198 209 218 229 244 258 270 279 287 299 307 315 328 330 334 337 331 301 316 315 223 195 163 123 84 55 32 29 25 20 30 44 343 338 10 37 53 348 341 23 12 64 82 108 94 179 200 197 186 178 186 183 173 188 221 152 158 187 173 146 184 322 27 85 353 351 8 9 48 73 100 125 144
194 196 190 195 201 198 193 191 192 193 191 193 195 197 195 199 212 222 236 250 263 273 281 289 302 312 320 327 334 339 342 356 337 308 3 149 157 145 112 79 45 34 27 19 15 22 35 308 332 26 42 53 356 358 32 13 45 125 109 85 226 214 215 218 183 192 215 164 151 191 163 181 216 166 158 178 176 219 197 213 204 248 229 209 302 100 124 140
196 195 191 195 200 199 196 186 183 190 197 194 190 189 186 195 209 221 238 246 263 273 280 293 305 312 320 327 337 339 351 39 14 229 139 136 139 125 97 69 35 30 21 15 15 13 15 7 41 49 56 41 341 18 43 354 33 100 102 150 214 174 164 219 195 202 210 158 149 157 128 179 232 172 153 143 145 261 243 216 192 202 197 187 210 128 123 131
198 196 192 193 193 197 196 188 185 188 195 195 193 187 175 191 208 216 230 240 256 268 281 296 306 313 321 330 338 337 9 54 261 183 147 145 136 119 96 61 28 22 17 17 15 19 27 44 58 46 52 42 348 27 24 315 62 68 43 195 193 137 135 213 198 192 154 123 114 126 154 188 184 144 155 152 180 235 237 235 216 195 175 170 174 148 129 126
198 197 197 194 190 197 198 191 188 189 194 197 197 188 178 192 202 212 225 238 251 264 284 295 305 312 322 331 335 348 68 80 243 179 165 157 142 132 111 52 25 13 6 17 17 32 38 31 53 50 40 48 8 51 345 313 45 96 327 307 209 179 188 199 182 192 146 115 132 167 193 144 103 274 191 169 207 236 268 260 212 165 152 152 146 142 134 131
199 199 202 198 193 200 203 194 190 193 196 198 195 182 186 191 192 214 225 239 252 267 283 295 304 306 327 335 334 23 88 262 232 179 182 167 159 167 130 14 20 3 353 25 24 49 66 37 61 110 75 66 142 101 355 319 33 91 140 311 223 196 217 209 153 175 155 145 190 177 127 151 171 204 162 201 234 272 334 33 118 123 131 136 131 135 139 138
204 203 204 200 202 210 206 199 194 196 197 199 194 183 188 188 187 203 216 234 249 268 279 294 302 309 334 342 17 25 350 264 194 179 189 180 181 191 208 349 9 354 33 48 35 97 93 48 91 145 85 87 165 105 351 335 26 70 148 232 252 209 259 280 85 174 180 171 179 124 139 217 199 164 194 229 224 164 77 85 102 111 114 126 131 136 139 137
209 206 207 207 210 213 206 200 197 197 196 200 199 193 193 188 186 194 204 219 230 255 278 296 299 315 336 23 83 42 285 240 177 181 188 191 199 209 248 350 19 13 64 55 47 93 96 86 181 178 155 169 125 85 351 13 336 182 149 185 234 334 323 333 238 241 227 228 138 137 231 271 253 191 262 227 187 156 111 97 105 115 116 129 137 147 147 144
212 210 211 211 203 208 204 196 199 198 196 203 208 206 201 191 185 189 197 204 214 239 274 288 296 326 335 57 89 131 272 216 181 184 187 198 207 222 252 334 5 26 71 59 52 70 94 163 177 151 142 127 89 67 352 68 183 174 123 132 172 330 320 354 228 263 281 271 196 190 242 283 321 255 251 242 180 153 118 114 126 126 137 149 140 153 154 156
215 212 217 213 196 211 213 201 206 205 209 211 213 215 210 196 183 189 196 198 203 214 248 272 303 324 325 76 112 197 265 187 186 184 188 198 206 231 249 282 329 48 69 67 67 70 93 151 148 124 115 103 91 24 350 128 110 87 93 344 323 336 307 196 232 266 235 251 194 175 237 282 350 241 234 227 173 158 138 142 156 145 154 155 145 149 156 166
216 213 220 217 209 225 215 225 237 239 242 224 218 221 211 196 185 191 197 194 199 202 222 258 311 313 4 61 150 216 254 211 196 189 191 196 198 217 223 233 85 75 54 66 82 73 76 113 109 97 325 143 123 16 15 119 83 67 74 319 306 350 332 250 238 240 176 208 185 152 290 291 236 226 249 203 152 148 141 156 172 168 172 160 154 151 163 173
219 214 217 219 225 244 248 252 265 281 272 243 235 230 214 197 186 193 196 193 196 188 198 220 287 10 80 5 231 228 245 236 212 199 193 195 193 201 194 173 136 85 52 68 87 73 60 50 95 101 113 108 127 208 101 48 53 233 54 69 314 357 329 278 340 167 168 189 184 151 276 276 252 250 258 163 149 139 149 181 190 185 187 179 174 169 180 182
224 219 216 219 223 230 234 239 259 283 310 320 285 241 227 198 180 188 188 187 191 185 185 160 204 84 107 244 252 244 244 235 222 209 195 196 190 184 189 174 152 84 50 70 82 62 49 64 91 96 88 86 141 105 38 9 25 8 14 47 6 351 278 287 331 136 158 199 149 130 216 264 271 274 229 175 163 156 177 200 195 195 195 192 194 186 195 199
227 227 221 221 222 225 228 227 235 257 322 339 320 283 250 192 177 180 178 175 166 162 152 128 147 107 78 274 271 262 241 229 218 206 195 193 184 174 186 185 163 92 92 94 94 73 61 87 87 82 58 15 61 79 27 353 14 30 310 304 340 185 264 304 274 163 161 248 71 125 211 270 273 276 216 176 175 173 190 205 200 203 199 196 202 193 200 211
232 235 231 225 225 227 229 233 221 191 349 334 320 302 243 174 165 163 165 156 134 125 101 100 132 114 91 272 286 280 232 217 205 196 189 183 177 170 165 157 118 102 110 98 109 94 62 63 60 71 125 54 71 89 48 8 343 355 121 245 268 182 273 318 292 221 189 141 53 174 218 271 276 297 266 171 181 186 199 216 211 209 204 199 199 195 195 198
239 242 241 234 229 223 221 232 219 163 351 321 321 313 139 142 149 148 145 129 116 101 85 111 134 115 238 256 254 264 217 194 191 186 183 176 175 173 155 134 96 106 99 81 96 86 39 42 43 319 56 62 98 100 64 312 281 309 5 239 243 196 212 299 298 275 163 136 210 219 232 247 258 302 185 187 189 187 211 224 217 212 208 201 196 196 196 191
243 247 247 241 232 219 213 222 218 184 186 302 77 119 113 111 122 132 134 126 107 79 65 108 111 102 262 238 200 220 168 171 179 176 176 173 173 170 149 124 109 105 76 47 55 53 18 25 60 45 28 21 123 116 156 227 213 198 197 207 244 227 208 251 282 245 150 145 212 200 238 254 263 273 211 204 197 196 220 227 219 215 207 204 201 198 199 195
243 247 247 246 239 216 208 216 204 178 197 120 132 123 107 91 95 117 135 134 122 105 179 212 159 150 230 234 176 109 121 147 162 169 170 164 162 152 122 102 98 95 87 74 347 25 80 51 63 95 195 226 199 175 196 207 171 170 180 161 183 212 240 237 252 259 192 168 227 212 227 248 258 264 240 211 199 209 232 238 231 219 207 207 206 203 202 199
241 245 244 248 247 219 207 208 178 165 228 162 139 126 111 98 74 13 175 178 205 173 153 208 199 171 263 279 127 115 121 126 140 170 168 164 154 133 94 66 65 66 113 158 191 24 109 135 179 192 213 212 201 199 199 166 139 135 132 148 188 197 260 257 252 293 271 166 245 228 230 248 250 259 256 211 190 223 238 239 236 220 209 209 205 206 201 198
238 239 240 243 248 232 207 191 155 173 228 178 160 141 156 164 137 234 223 247 255 241 238 237 218 240 311 211 159 140 126 93 28 167 166 168 153 141 138 66 93 95 220 159 141 53 104 171 219 220 217 204 194 200 181 131 129 107 126 180 240 203 246 259 242 305 340 172 265 264 250 256 249 255 263 205 179 226 228 225 232 222 214 213 205 204 196 187
234 234 235 233 241 238 204 174 168 199 223 196 189 197 250 191 123 131 155 225 263 242 232 241 308 274 261 195 180 162 93 97 325 204 172 163 156 171 184 94 140 186 179 121 109 77 166 224 233 225 183 131 153 186 176 171 160 117 114 167 247 238 262 278 277 317 8 175 266 293 275 261 255 257 265 242 215 232 228 218 227 220 213 213 202 196 185 179
231 230 230 225 237 235 192 176 191 207 216 205 205 212 214 150 103 63 121 109 290 246 216 213 222 232 221 225 197 182 131 162 178 217 182 160 157 186 148 136 167 145 129 164 162 169 202 246 240 203 141 141 155 129 145 165 207 182 162 170 231 239 234 270 289 319 351 210 265 297 290 270 263 263 261 250 233 241 242 228 231 223 216 215 200 193 187 182
227 228 227 219 232 226 185 187 199 203 215 219 223 213 152 113 111 66 92 315 299 265 220 207 207 201 193 201 185 178 201 190 169 192 183 163 139 161 161 163 152 129 180 196 186 197 219 238 210 146 154 172 162 118 143 165 240 232 201 196 210 212 213 229 283 324 342 344 1 334 302 276 248 245 252 256 259 267 250 237 243 236 223 211 193 194 192 183
224 226 224 216 229 213 182 197 204 199 208 224 229 214 171 122 103 69 68 358 286 281 289 207 198 205 196 176 167 168 157 233 213 186 179 169 150 144 181 162 134 181 203 190 190 233 242 227 113 114 148 167 162 169 176 172 210 263 225 205 210 212 223 235 323 4 356 322 343 15 295 279 270 246 252 267 301 274 245 231 244 239 216 198 191 192 185 180
223 225 218 214 224 199 181 208 210 199 205 225 226 207 184 166 111 79 88 39 282 265 226 181 179 192 187 164 153 138 78 251 237 162 168 177 172 134 152 161 86 202 186 153 189 247 243 215 113 124 144 160 180 209 212 176 169 261 244 206 205 201 211 210 159 87 264 260 300 57 203 274 291 240 238 247 254 262 256 246 249 236 210 205 196 188 177 175
220 222 213 212 216 194 186 207 194 187 195 233 219 188 187 186 159 145 85 28 280 199 142 199 187 169 173 163 152 133 192 228 121 141 167 179 190 97 135 185 128 195 165 123 242 256 181 166 102 116 123 149 183 217 215 168 148 238 251 178 176 182 199 191 163 182 233 263 317 35 118 275 284 251 235 229 230 265 274 262 255 228 209 215 195 186 181 179
219 220 211 211 213 198 195 179 176 184 189 218 190 172 179 183 174 129 97 213 274 137 127 237 159 136 139 154 151 135 229 185 119 189 178 155 187 72 168 205 171 182 174 146 225 275 152 173 171 154 138 166 196 214 186 155 157 245 214 128 140 157 170 142 132 177 315 354 296 263 123 260 277 262 284 293 223 253 262 256 257 224 203 212 195 190 184 181
217 217 210 209 211 204 208 204 183 199 202 168 159 168 169 171 171 76 86 210 264 95 115 124 130 109 96 144 158 113 32 58 132 218 55 128 180 62 172 200 150 167 194 180 217 267 125 195 189 163 165 194 203 226 176 160 181 209 122 94 76 73 73 80 100 115 51 316 242 204 163 237 276 244 139 64 210 237 250 256 266 235 206 203 192 190 182 177
216 215 209 204 201 202 210 220 218 210 203 180 159 164 159 152 147 99 157 224 248 123 118 121 167 165 142 150 175 359 93 56 24 105 55 109 83 37 142 153 94 132 212 304 249 253 309 275 182 162 180 180 141 89 160 164 159 137 104 69 52 39 36 50 46 76 54 279 226 189 182 186 278 271 168 182 206 219 239 264 287 267 215 201 194 188 181 177
216 213 207 200 200 198 201 220 221 207 202 193 162 154 151 98 86 162 202 238 349 160 131 142 193 142 153 160 172 190 141 92 163 140 133 142 92 60 102 113 81 90 310 285 279 308 331 331 243 219 167 122 99 77 33 76 126 114 91 87 78 354 8 25 356 48 168 260 231 196 187 180 233 258 222 247 258 229 216 230 259 256 223 205 199 191 182 178
217 214 206 202 203 199 197 213 209 199 193 181 161 149 153 105 156 216 221 61 296 200 160 168 196 160 165 171 177 178 156 149 183 163 157 155 166 184 193 193 166 122 252 238 246 334 287 239 261 316 203 142 118 93 31 25 103 106 104 119 123 326 358 353 315 37 225 262 289 264 179 201 238 256 263 264 266 248 220 218 233 234 224 208 193 186 180 175
219 215 207 203 202 200 202 209 202 196 181 170 163 136 132 165 198 215 213 196 220 205 137 124 151 160 163 170 187 171 140 170 178 169 166 149 175 209 220 214 178 152 199 195 184 192 264 294 310 152 262 190 156 160 166 187 181 164 148 148 154 150 183 255 264 276 262 272 296 289 201 248 272 278 249 251 260 258 227 227 233 225 221 210 191 179 173 176
220 215 207 204 204 203 202 200 198 193 179 171 169 134 156 192 210 209 212 212 201 32 66 112 123 141 163 176 203 168 154 213 175 151 153 141 167 217 228 229 209 157 101 144 176 180 215 283 207 180 213 189 182 189 169 140 164 186 161 150 166 163 174 212 212 224 254 284 296 267 196 206 215 247 241 243 269 285 250 241 243 239 229 198 172 165 167 180
221 214 208 202 201 203 199 194 194 190 181 173 184 176 179 200 210 213 213 194 130 29 29 78 110 131 190 252 280 190 167 208 173 147 166 171 187 204 198 208 201 165 130 172 211 164 200 264 239 214 207 170 183 197 121 111 150 218 121 121 188 184 170 189 200 182 178 293 285 220 223 219 212 266 268 252 266 275 271 269 242 241 228 163 159 171 176 185
216 208 205 196 197 202 196 191 191 188 181 167 189 195 198 207 207 210 198 158 160 142 102 75 84 131 205 231 271 224 181 116 153 155 197 204 224 211 204 212 191 179 177 175 185 161 178 274 281 343 3 178 182 176 133 140 180 169 142 180 203 165 142 145 259 116 100 270 263 193 242 286 310 278 271 252 256 261 274 274 235 228 220 177 179 183 182 187
211 204 201 197 201 201 195 191 188 186 185 178 194 198 207 218 209 174 172 157 148 139 132 166 177 163 193 198 215 210 191 106 155 174 195 193 249 213 204 235 187 190 198 179 188 201 167 258 288 119 196 250 206 123 77 22 128 132 180 200 155 81 102 114 260 327 78 258 268 207 240 271 263 266 302 314 258 255 250 244 234 226 212 204 201 191 190 190
214 209 211 211 208 199 193 192 185 182 192 208 206 208 212 220 213 171 171 138 132 152 167 200 195 175 184 192 202 187 179 184 174 183 184 182 243 207 183 204 197 198 204 180 215 243 153 233 291 82 179 294 16 120 91 355 66 128 182 183 131 145 203 130 200 231 207 245 278 274 259 250 213 226 291 246 234 243 241 225 223 225 209 208 211 198 195 189
204 205 248 224 212 200 193 193 186 180 204 204 205 214 218 220 216 199 184 149 151 169 186 208 203 180 186 186 176 172 185 190 170 176 189 187 230 206 176 188 202 199 196 175 189 223 138 206 267 347 289 315 18 168 183 210 21 56 120 154 121 154 178 162 176 188 187 228 270 299 301 255 223 206 202 220 225 226 227 216 219 223 208 205 207 194 192 191
188 207 273 214 207 201 193 191 189 191 215 205 204 213 223 220 207 240 233 171 167 184 195 210 203 181 191 190 175 174 191 195 174 182 204 190 212 231 188 180 174 181 186 185 195 171 115 208 240 325 336 170 195 212 190 182 178 162 159 169 182 133 111 169 212 126 139 177 218 273 282 261 243 204 198 217 225 216 213 214 222 222 206 202 205 197 192 191
149 239 267 168 189 192 187 189 201 201 207 213 215 220 229 227 201 230 247 153 95 234 192 206 205 191 180 185 195 183 177 190 185 189 217 204 206 231 200 176 162 151 154 183 208 193 165 193 183 178 216 203 226 248 209 198 192 181 186 187 183 169 141 179 233 186 144 185 186 205 265 261 242 206 206 217 228 225 218 222 234 229 202 202 207 201 196 192
154 231 213 162 180 179 175 200 217 198 209 211 215 219 217 223 210 209 215 193 260 276 20 220 210 197 179 182 193 173 161 182 191 193 222 216 210 220 206 182 165 155 151 174 205 192 139 119 151 189 214 217 244 280 258 223 183 149 199 188 168 179 179 188 216 200 156 214 168 131 272 273 254 212 227 239 252 270 262 239 249 244 205 204 211 205 201 198
207 213 121 161 178 174 170 223 206 203 229 227 237 238 203 221 220 194 189 204 213 206 206 251 211 201 207 182 163 169 175 187 196 201 218 222 219 222 195 176 161 156 161 171 189 168 111 134 176 233 303 296 305 323 332 315 110 120 229 180 173 198 195 191 204 169 169 211 167 147 257 264 285 278 259 271 276 282 272 246 244 249 219 204 214 212 204 198
212 204 56 171 181 179 180 221 205 211 221 223 242 235 229 249 223 204 206 206 206 189 204 232 226 210 218 162 152 184 188 191 207 209 211 216 227 225 174 175 169 165 180 187 169 171 179 176 159 149 302 319 327 295 271 234 173 193 219 194 195 199 182 163 106 118 213 205 164 191 244 238 283 310 310 320 319 293 272 253 233 237 220 202 210 211 202 192
172 197 243 182 186 190 212 217 201 216 211 209 227 220 224 243 225 220 222 212 213 201 203 227 211 188 200 175 177 190 191 204 216 208 209 221 250 286 182 186 185 185 199 194 165 168 177 171 165 182 211 217 214 216 213 187 166 199 211 193 197 195 185 183 163 179 228 191 162 207 240 238 305 305 298 317 326 289 269 259 246 239 220 208 208 201 195 191
191 210 188 170 186 207 252 238 188 221 210 201 217 210 214 226 228 224 220 216 223 211 210 243 177 171 191 193 201 204 204 217 219 181 204 214 218 286 207 194 198 205 206 163 154 156 145 183 193 201 217 219 215 208 141 131 155 204 203 191 197 200 193 189 199 209 201 146 195 224 233 249 265 250 254 280 275 259 266 268 261 250 231 222 218 204 194 189
220 217 176 171 177 201 234 248 221 224 203 186 194 188 203 219 228 219 205 215 222 212 216 231 185 187 190 191 208 214 205 214 214 197 210 207 195 325 315 191 208 220 195 160 167 150 115 207 208 211 224 224 193 163 150 148 177 202 195 192 199 198 191 193 211 209 148 156 240 225 199 241 251 230 221 251 250 246 254 249 245 245 232 219 208 192 185 183
231 231 183 192 196 191 210 221 212 216 215 197 191 183 196 215 220 211 205 217 222 213 213 219 213 213 205 198 208 211 196 203 213 218 220 201 158 115 29 273 227 200 134 171 193 156 146 213 213 208 226 229 158 158 181 171 185 198 194 198 199 193 193 201 213 205 164 206 242 200 166 230 245 224 198 218 224 226 231 231 227 224 215 196 185 190 193 190
233 267 261 245 231 206 202 192 187 203 213 204 198 202 198 210 217 217 209 208 220 217 209 217 222 220 217 212 208 207 204 202 212 220 215 183 159 163 167 223 230 182 142 170 200 183 173 215 205 191 220 231 203 185 193 182 190 201 203 205 199 196 199 203 212 209 198 227 243 222 225 246 245 200 198 214 218 216 205 191 189 203 213 198 193 204 204 197
211 233 245 331 281 235 214 173 167 188 204 196 198 209 197 208 219 224 216 198 209 213 208 221 229 224 220 221 220 222 218 211 217 220 200 177 188 193 193 198 174 159 172 186 201 203 195 205 180 159 213 232 208 189 193 193 195 202 217 218 207 202 204 206 212 209 210 236 242 238 256 260 238 176 208 210 177 167 177 208 217 220 217 201 204 214 211 204
197 65 130 143 233 212 194 173 168 185 197 188 194 196 193 214 219 221 229 221 221 219 207 219 231 230 220 220 223 229 230 225 225 220 188 188 200 192 195 199 151 151 180 193 186 181 187 199 141 140 211 231 201 183 195 198 189 223 240 231 212 197 199 206 212 205 204 225 234 232 248 253 228 172 201 173 154 187 212 222 228 230 213 199 208 216 211 204
180 55 99 123 262 216 198 193 187 196 199 187 195 194 195 217 213 203 233 244 232 231 222 223 232 233 223 222 223 228 234 234 228 204 171 192 190 124 131 168 154 158 173 180 177 170 175 182 160 166 210 234 191 175 181 164 164 242 245 229 206 191 194 202 212 212 206 213 219 219 236 245 221 155 190 198 201 216 223 221 223 227 215 206 212 215 209 204